Location: *
(45.9500°N, 9.0833°E)
Time: 00:29:11
(UTC+00:00)

Tiros 1 despin weight - Pass Details

Date: 26 June 2021
Orbit: 593 x 642 km, 48.2° (Epoch: 02 August)

Event Time Altitude Azimuth Distance (km) Brightness Sun altitude
Rises 07:18:05 0° 288° (WNW) 2,829 ? 35.7°
Reaches altitude 10° 07:20:22 10° 287° (WNW) 1,925 ? 36.1°
Maximum altitude 07:24:46 76° 203° (SSW) 615 ? 36.8°
Drops below altitude 10° 07:29:10 10° 117° (ESE) 1,925 ? 37.6°
Sets 07:31:27 0° 116° (ESE) 2,830 ? 38.0°
